Location: Rioux
(40.7500°S, 175.7500°E)
Time: 10:58:49
(UTC+00:00)

Spot 4 Rocket - Pass Details

Date: 12 June 2024
Orbit: 771 x 777 km, 98.8° (Epoch: 21 July)

Event Time Altitude Azimuth Distance (km) Brightness Sun altitude
Rises 17:27:23 0° 10° (N) 3,240 7.5 -24.0°
Reaches altitude 10° 17:29:41 10° 8° (N) 2,322 6.7 -23.6°
Maximum altitude 17:34:48 73° 283° (WNW) 820 3.9 -22.6°
Enters shadow 17:36:56 36° 206° (SSW) 1,231 4.7 -22.2°
